Regional Weather Roundup
Issued by NWS Sioux Falls, SD

Home | Current Version | Previous Version | Graphics & Text | Print | Product List | Glossary On
Versions: 1 2 3 4 5 6 7 8 9 10 11 12 13 14 15 16 17 18 19 20 21 22 23 24 25 26 27 28 29 30 31 32 33 34 35 36 37 38 39 40 41 42 43 44 45 46 47 48 49 50
000
ASUS43 KFSD 250702
RWRFSD

WEATHER ROUNDUP FOR SE SOUTH DAKOTA/SW MINNESOTA/NW IOWA
NATIONAL WEATHER SERVICE SIOUX FALLS SD
200 AM CDT MON JUL 25 2016

NOTE: "FAIR" INDICATES FEW OR NO CLOUDS BELOW 12,000 FEET WITH NO
SIGNIFICANT WEATHER AND OR OBSTRUCTIONS TO VISIBILITY.


SDZ038>040-050-052>070-250800-
SOUTHEAST SOUTH DAKOTA

CITY           SKY/WX    TMP DP  RH WIND       PRES   REMARKS
BROOKINGS      CLEAR     64  61  90 CALM        N/A
CHAMBERLAIN    CLEAR     62  58  86 CALM      30.09F
HURON          CLEAR     66  57  72 CALM      30.06F
MADISON        FAIR      64  61  88 W3        30.10S
MITCHELL       CLEAR     68  61  78 SW6       30.09S
SIOUX FALLS    CLEAR     65  59  81 W3        30.08F
WINNER         FAIR      71  55  56 S8        30.11S
YANKTON        CLEAR     64  59  82 CALM      30.07F
$$

MNZ071-072-080-081-089-090-097-098-250800-
SOUTHWEST MINNESOTA

CITY           SKY/WX    TMP DP  RH WIND       PRES   REMARKS
FAIRMONT       CLEAR     66  61  82 W6        30.05R
JACKSON        CLEAR     64  59  82 W6        30.08S
LUVERNE        CLEAR     63  59  88 N3        30.09S
MARSHALL       CLEAR     65  61  87 W9        30.06R
MONTEVIDEO     CLEAR     64  61  88 W5        30.05R
REDWOOD FALLS  CLEAR     67  61  81 W6        30.03R
TRACY          CLEAR     66  63  90 SW6       30.07S
WINDOM         CLEAR     64  61  88 CALM      30.07S
WORTHINGTON    CLEAR     63  61  93 W8        30.09S
$$

IAZ001>003-012>014-020>022-031-032-NEZ013-014-SDZ071-250800-
NORTHWEST IOWA

CITY           SKY/WX    TMP DP  RH WIND       PRES   REMARKS
CHEROKEE       CLEAR     65  63  93 CALM      30.08S
ESTHERVILLE    CLEAR     63  62  97 W8        30.07R
LE MARS        CLEAR     64  63  94 CALM      30.08F
SHELDON        CLEAR     63  63 100 W5        30.07F
SIOUX CITY     CLEAR     68  63  84 NW6       30.07S
SPENCER        CLEAR     63  60  90 CALM      30.07S
STORM LAKE     CLEAR     66  63  88 NW9       30.08F
$$

ABBREVIATIONS USED IN REMARKS
   TC - TEMPERATURE IN CELSIUS
  WCI - WIND CHILL INDEX
   HX - HEAT INDEX
  VSB - VISIBILITY





USA.gov is the U.S. government's official web portal to all federal, state and local government web resources and services.